| time (UTC) | temp F | wind direction | speed MPH | gust MPH | rain 1hr in | rain 24hr in | rain mn in | humidity % | barometer mb |
| 20260507100022 | 58 | 360 | 0.0 | 3.0 | 0.00 | 0.01 | 0.00 | 73 | 1016.9 |
| 20260507094516 | 57 | 78 | 0.0 | 4.0 | 0.00 | 0.01 | 0.00 | 73 | 1017.0 |
| 20260507093012 | 57 | 298 | 0.0 | 2.0 | 0.00 | 0.01 | 0.00 | 76 | 1016.8 |
| 20260507091514 | 56 | 313 | 0.0 | 3.0 | 0.00 | 0.01 | 0.00 | 77 | 1016.9 |
| 20260507090010 | 56 | 90 | 0.0 | 4.0 | 0.00 | 0.01 | 0.00 | 78 | 1016.8 |
| 20260507084510 | 55 | 96 | 1.0 | 3.0 | 0.00 | 0.01 | 0.00 | 78 | 1016.7 |
| 20260507083100 | 54 | 103 | 1.0 | 3.0 | 0.00 | 0.01 | 0.00 | 78 | 1016.7 |
| 20260507081603 | 53 | 329 | 0.0 | 2.0 | 0.00 | 0.01 | 0.00 | 80 | 1016.7 |
| 20260507080053 | 53 | 324 | 0.0 | 1.0 | 0.00 | 0.01 | 0.00 | 82 | 1016.7 |
| 20260507074601 | 52 | 324 | 0.0 | 1.0 | 0.00 | 0.01 | 0.00 | 86 | 1016.6 |
| 20260507073045 | 52 | 324 | 0.0 | 0.0 | 0.00 | 0.01 | 0.00 | 88 | 1016.4 |
| 20260507071541 | 51 | 325 | 0.0 | 0.0 | 0.00 | 0.01 | 0.00 | 90 | 1016.4 |
| 20260507070037 | 50 | 324 | 0.0 | 0.0 | 0.00 | 0.01 | 0.00 | 92 | 1016.3 |
| 20260507064533 | 49 | 324 | 0.0 | 0.0 | 0.00 | 0.01 | 0.00 | 92 | 1016.2 |
| 20260507063030 | 48 | 324 | 0.0 | 1.0 | 0.00 | 0.01 | 0.00 | 93 | 1016.2 |
| 20260507061528 | 48 | 355 | 0.0 | 2.0 | 0.00 | 0.01 | 0.00 | 93 | 1016.1 |
| 20260507060027 | 48 | 274 | 0.0 | 2.0 | 0.00 | 0.01 | 0.00 | 94 | 1016.0 |
| 20260507054521 | 47 | 280 | 0.0 | 2.0 | 0.00 | 0.01 | 0.00 | 94 | 1016.0 |
| 20260507053020 | 47 | 355 | 0.0 | 3.0 | 0.00 | 0.01 | 0.00 | 95 | 1015.9 |
| 20260507051518 | 46 | 24 | 0.0 | 3.0 | 0.00 | 0.01 | 0.00 | 95 | 1015.8 |
| 20260507050025 | 45 | 314 | 0.0 | 1.0 | 0.00 | 0.01 | 0.00 | 95 | 1015.7 |
| 20260507044513 | 45 | 314 | 0.0 | 1.0 | 0.00 | 0.01 | 0.00 | 95 | 1015.5 |
| 20260507043010 | 45 | 314 | 0.0 | 1.0 | 0.00 | 0.01 | 0.00 | 95 | 1015.4 |
| 20260507041510 | 45 | 314 | 0.0 | 3.0 | 0.00 | 0.01 | 0.00 | 95 | 1015.3 |
| 20260507040009 | 45 | 325 | 0.0 | 2.0 | 0.00 | 0.01 | 0.00 | 95 | 1015.4 |
| 20260507034508 | 45 | 325 | 0.0 | 1.0 | 0.00 | 0.01 | 0.00 | 95 | 1015.3 |
| 20260507033017 | 45 | 325 | 0.0 | 2.0 | 0.00 | 0.01 | 0.00 | 94 | 1015.4 |
| 20260507031506 | 45 | 325 | 0.0 | 1.0 | 0.00 | 0.01 | 0.00 | 94 | 1015.4 |
| 20260507030006 | 46 | 325 | 0.0 | 1.0 | 0.00 | 0.02 | 0.00 | 94 | 1015.3 |
| 20260507024503 | 46 | 325 | 0.0 | 1.0 | 0.00 | 0.02 | 0.00 | 93 | 1015.3 |
| 20260507023002 | 46 | 325 | 0.0 | 1.0 | 0.00 | 0.02 | 0.00 | 93 | 1015.3 |
| 20260507021503 | 46 | 325 | 0.0 | 1.0 | 0.00 | 0.02 | 0.00 | 93 | 1015.2 |
| 20260507014605 | 46 | 355 | 0.0 | 2.0 | 0.00 | 0.02 | 0.00 | 93 | 1015.1 |
| 20260507013058 | 46 | 355 | 0.0 | 2.0 | 0.00 | 0.02 | 0.00 | 93 | 1015.1 |
| 20260507011557 | 46 | 232 | 0.0 | 1.0 | 0.00 | 0.02 | 0.00 | 94 | 1014.8 |
| 20260507004554 | 47 | 334 | 0.0 | 3.0 | 0.00 | 0.02 | 0.00 | 93 | 1014.7 |
| 20260507003053 | 47 | 212 | 0.0 | 4.0 | 0.00 | 0.02 | 0.00 | 93 | 1014.7 |
| 20260507001559 | 47 | 313 | 0.0 | 1.0 | 0.00 | 0.02 | 0.00 | 93 | 1014.8 |
| 20260507000050 | 47 | 126 | 0.0 | 2.0 | 0.00 | 0.02 | 0.00 | 92 | 1014.8 |
| 20260506234549 | 48 | 15 | 0.0 | 3.0 | 0.00 | 0.02 | 0.00 | 92 | 1014.9 |
| 20260506233102 | 48 | 265 | 0.0 | 3.0 | 0.00 | 0.02 | 0.00 | 91 | 1014.8 |
| 20260506231548 | 48 | 34 | 1.0 | 6.0 | 0.00 | 0.02 | 0.00 | 91 | 1014.8 |
| 20260506230045 | 48 | 302 | 0.0 | 5.0 | 0.00 | 0.04 | 0.00 | 90 | 1014.8 |
| 20260506224541 | 49 | 225 | 0.0 | 3.0 | 0.00 | 0.04 | 0.00 | 90 | 1014.7 |
| 20260506223036 | 49 | 346 | 0.0 | 5.0 | 0.00 | 0.04 | 0.00 | 90 | 1014.7 |
| 20260506221532 | 49 | 248 | 0.0 | 3.0 | 0.00 | 0.04 | 0.00 | 90 | 1014.5 |
| 20260506220027 | 49 | 320 | 1.0 | 5.0 | 0.00 | 0.06 | 0.04 | 90 | 1014.4 |
| 20260506214527 | 49 | 5 | 1.0 | 5.0 | 0.00 | 0.06 | 0.04 | 90 | 1014.5 |
| 20260506213025 | 49 | 32 | 1.0 | 6.0 | 0.00 | 0.06 | 0.04 | 90 | 1014.4 |
| 20260506211523 | 49 | 101 | 1.0 | 4.0 | 0.00 | 0.06 | 0.04 | 90 | 1014.2 |
| 20260506210025 | 49 | 146 | 2.0 | 8.0 | 0.00 | 0.07 | 0.04 | 89 | 1014.1 |
| 20260506204525 | 49 | 325 | 1.0 | 5.0 | 0.00 | 0.07 | 0.04 | 89 | 1014.1 |
| 20260506203021 | 49 | 311 | 1.0 | 6.0 | 0.00 | 0.07 | 0.04 | 89 | 1014.0 |
| 20260506201521 | 50 | 276 | 1.0 | 4.0 | 0.00 | 0.07 | 0.04 | 89 | 1013.9 |
| 20260506200019 | 50 | 13 | 1.0 | 6.0 | 0.00 | 0.07 | 0.04 | 88 | 1013.7 |
| 20260506194520 | 50 | 282 | 0.0 | 3.0 | 0.00 | 0.07 | 0.04 | 88 | 1013.6 |
| 20260506193017 | 50 | 321 | 1.0 | 5.0 | 0.00 | 0.07 | 0.04 | 87 | 1013.3 |
| 20260506191517 | 51 | 304 | 1.0 | 8.0 | 0.00 | 0.07 | 0.04 | 86 | 1013.2 |
| 20260506190015 | 51 | 226 | 1.0 | 4.0 | 0.00 | 0.07 | 0.04 | 86 | 1013.0 |
| 20260506184514 | 51 | 306 | 0.0 | 6.0 | 0.00 | 0.07 | 0.04 | 85 | 1013.0 |
| 20260506183013 | 52 | 320 | 1.0 | 7.0 | 0.00 | 0.07 | 0.04 | 85 | 1012.9 |
| 20260506181511 | 52 | 234 | 1.0 | 4.0 | 0.00 | 0.07 | 0.04 | 84 | 1012.7 |
| 20260506180010 | 52 | 12 | 2.0 | 8.0 | 0.00 | 0.07 | 0.04 | 83 | 1012.5 |
| 20260506174509 | 52 | 329 | 1.0 | 5.0 | 0.00 | 0.07 | 0.04 | 84 | 1012.4 |
| 20260506173011 | 53 | 40 | 2.0 | 5.0 | 0.00 | 0.07 | 0.04 | 83 | 1012.3 |
| 20260506171510 | 52 | 13 | 2.0 | 8.0 | 0.00 | 0.07 | 0.04 | 83 | 1012.2 |
| 20260506170006 | 53 | 41 | 1.0 | 4.0 | 0.00 | 0.07 | 0.04 | 83 | 1012.1 |
| 20260506164506 | 52 | 5 | 1.0 | 6.0 | 0.00 | 0.07 | 0.04 | 83 | 1012.2 |
| 20260506163007 | 52 | 355 | 1.0 | 4.0 | 0.00 | 0.07 | 0.04 | 83 | 1012.1 |
| 20260506161505 | 52 | 236 | 2.0 | 5.0 | 0.00 | 0.07 | 0.04 | 83 | 1012.0 |
| 20260506160011 | 52 | 5 | 1.0 | 4.0 | 0.00 | 0.07 | 0.04 | 84 | 1012.1 |
| 20260506154503 | 52 | 294 | 1.0 | 9.0 | 0.00 | 0.07 | 0.04 | 84 | 1012.1 |
| 20260506153003 | 52 | 355 | 1.0 | 10.0 | 0.01 | 0.07 | 0.04 | 85 | 1012.1 |
| 20260506151503 | 53 | 27 | 2.0 | 9.0 | 0.01 | 0.07 | 0.04 | 84 | 1012.1 |
| 20260506150002 | 54 | 284 | 1.0 | 10.0 | 0.01 | 0.07 | 0.04 | 82 | 1011.9 |
| 20260506144501 | 55 | 151 | 2.0 | 9.0 | 0.01 | 0.07 | 0.04 | 81 | 1012.0 |
| 20260506143108 | 55 | 288 | 2.0 | 6.0 | 0.00 | 0.06 | 0.03 | 82 | 1012.0 |
| 20260506141600 | 55 | 308 | 2.0 | 8.0 | 0.00 | 0.06 | 0.03 | 79 | 1011.8 |
| 20260506134556 | 55 | 275 | 1.0 | 9.0 | 0.00 | 0.06 | 0.03 | 80 | 1011.8 |
| 20260506133056 | 54 | 301 | 2.0 | 10.0 | 0.00 | 0.06 | 0.03 | 81 | 1012.0 |
| 20260506131554 | 54 | 161 | 1.0 | 6.0 | 0.00 | 0.06 | 0.03 | 81 | 1011.9 |
| 20260506130053 | 54 | 264 | 1.0 | 5.0 | 0.00 | 0.06 | 0.03 | 80 | 1011.7 |
| 20260506124553 | 54 | 42 | 1.0 | 4.0 | 0.00 | 0.06 | 0.03 | 83 | 1011.6 |
| 20260506123052 | 53 | 339 | 1.0 | 5.0 | 0.00 | 0.06 | 0.03 | 82 | 1011.6 |
| 20260506121552 | 53 | 5 | 1.0 | 5.0 | 0.00 | 0.06 | 0.03 | 80 | 1011.5 |
| 20260506120058 | 54 | 240 | 1.0 | 8.0 | 0.00 | 0.06 | 0.03 | 81 | 1011.3 |
| 20260506114558 | 54 | 19 | 1.0 | 11.0 | 0.00 | 0.06 | 0.03 | 81 | 1011.3 |
| 20260506113050 | 54 | 36 | 1.0 | 4.0 | 0.00 | 0.06 | 0.03 | 83 | 1011.4 |
| 20260506111550 | 54 | 342 | 1.0 | 5.0 | 0.00 | 0.06 | 0.03 | 82 | 1011.3 |
| 20260506110056 | 54 | 108 | 0.0 | 2.0 | 0.00 | 0.06 | 0.03 | 81 | 1011.3 |
| 20260506104548 | 54 | 115 | 1.0 | 3.0 | 0.00 | 0.06 | 0.03 | 81 | 1011.5 |
| 20260506103047 | 54 | 44 | 2.0 | 5.0 | 0.00 | 0.06 | 0.03 | 81 | 1011.5 |
| 20260506101545 | 54 | 319 | 1.0 | 9.0 | 0.00 | 0.06 | 0.03 | 81 | 1011.7 |